Regional Weather Roundup
Issued by NWS

Home | Current Version | Previous Version | Text Only | Print | Product List | Glossary Off
Versions: 1 2 3 4 5 6 7 8 9 10 11 12 13 14 15 16 17 18 19 20 21 22 23 24 25 26 27 28 29 30 31 32 33 34 35 36 37 38 39 40 41 42 43 44 45 46 47 48 49 50

000
ASUS43 KDMX 231907
RWRIA

WEATHER ROUNDUP FOR IOWA
NATIONAL WEATHER SERVICE DES MOINES IA
200 PM CDT SAT MAY 23 2015

NOTE: "FAIR" INDICATES FEW OR NO CLOUDS BELOW 12,000 FEET WITH NO
SIGNIFICANT WEATHER AND/OR OBSTRUCTIONS TO VISIBILITY.

* - THESE STATIONS ARE NOT NWS STATIONS...THUS NOT UNDER NWS
QUALITY CONTROL.  THEY ALSO DO NOT REPORT WEATHER SUCH
AS PRECIPITATION OR FOG.

IAZ001>003-012>014-020>022-031>034-043>046-232000-
   NORTHWEST IOWA

CITY           SKY/WX    TMP DP  RH WIND       PRES   REMARKS
CARROLL *      CLOUDY    68  46  45 S17       30.17F
CHEROKEE *     CLOUDY    66  50  55 S13       30.17R
DENISON *      CLOUDY    66  54  63 S15G23    30.15F
LE MARS *      CLOUDY    66  52  59 S12G20    30.16F
ORANGE CITY *  PTSUNNY   64  48  55 SE8G16    30.16F
SHELDON *      CLOUDY    68  48  49 SE15      30.15F
SIOUX CITY     CLOUDY    65  52  62 S13       30.15F
SPENCER        LGT RAIN  67  51  56 SE15      30.17F
STORM LAKE *   CLOUDY    68  45  42 S18G25    30.18S
$$

IAZ055>058-069>071-079>083-090>094-232000-
   SOUTHWEST IOWA

CITY           SKY/WX    TMP DP  RH WIND       PRES   REMARKS
ATLANTIC *     CLOUDY    64  55  72 S13G18    30.17F
AUDUBON *      MOSUNNY   66  52  59 SE14G22   30.18F
CLARINDA *     CLOUDY    66  57  72 S15       30.18F
COUNCIL BLFS * CLOUDY    63  59  88 S10G18    30.16S
CRESTON *      CLOUDY    66  55  68 SE17      30.19F
HARLAN  *      CLOUDY    64  57  77 SE16      30.20F
LAMONI         CLOUDY    68  55  63 SE13      30.20F
RED OAK *      CLOUDY    64  57  77 SE10      30.16F
SHENANDOAH *   CLOUDY    66  59  77 SE15      30.16F
$$

IAZ047>049-059>061-072>074-084-232000-
   CENTRAL IOWA

CITY           SKY/WX    TMP DP  RH WIND       PRES   REMARKS
AMES           LGT RAIN  64  47  53 S15G23    30.20F
ANKENY *       PTSUNNY   68  52  56 SE10      30.20F
CHARITON *     PTSUNNY   72  52  49 SE10      30.20F
DES MOINES     CLOUDY    71  51  49 S15G22    30.20F
GRINNELL*      CLOUDY    70  48  46 SE14      30.22F
KNOXVILLE *    PTSUNNY   72  48  43 SE15G21   30.20S
MARSHALLTOWN   CLOUDY    71  47  42 S16G22    30.21F
PELLA *        CLOUDY    73  55  53 S12G18    30.22F
PERRY *        CLOUDY    66  43  42 SE17      30.19F
$$

IAZ004>006-015-016-023>025-035-036-232000-
   NORTH CENTRAL IOWA

CITY           SKY/WX    TMP DP  RH WIND       PRES   REMARKS
ALGONA *       PTSUNNY   73  72  94 S23       30.17F
CLARION *      PTSUNNY   75  43  31 S24G33    30.18F
ESTHERVILLE    CLOUDY    70  46  42 S21G29    30.17F
FORT DODGE *   CLOUDY    70  48  46 S16G22    30.20S
MASON CITY     PTSUNNY   75  43  31 SE15G25   30.21F
FOREST CITY *  MOSUNNY   72  45  37 S15G25    30.19F
IOWA FALLS *   LGT RAIN  66  48  52 S16G24    30.22S
$$

IAZ007>011-017>019-026>030-037>042-050>054-066-232000-
   NORTHEAST IOWA

CITY           SKY/WX    TMP DP  RH WIND       PRES   REMARKS
CEDAR RAPIDS   MOSUNNY   76  48  37 S10       30.22F
CHARLES CITY * PTSUNNY   75  43  31 S13G32    30.21F
CLINTON *      SUNNY     79  45  29 SW12      30.27F
DECORAH *      PTSUNNY   75  41  29 S10G16    30.22S
DUBUQUE        MOSUNNY   75  46  35 S12G18    30.24F
MONTICELLO *   SUNNY     77  43  29 S9G20     30.23F
OELWEIN *      MOSUNNY   77  43  29 S14G22    30.23S
WATERLOO       MOSUNNY   73  46  38 S14G22    30.20F
$$

IAZ064-065-067-068-078-232000-
   EAST CENTRAL IOWA

CITY           SKY/WX    TMP DP  RH WIND       PRES   REMARKS
DAVENPORT      MOSUNNY   78  45  30 S9        30.25F
IOWA CITY      MOSUNNY   76  50  40 S10G21    30.24F
MT. PLEASANT * PTSUNNY   77  43  29 S18G24    30.24S
MUSCATINE *    SUNNY     77  50  38 S12G22    30.24F
QUAD CITIES    MOSUNNY   78  47  33 SE8G18    30.23F
$$

IAZ062-063-075>077-085>089-095>099-232000-
   SOUTHEAST IOWA

CITY           SKY/WX    TMP DP  RH WIND       PRES   REMARKS
BURLINGTON     MOSUNNY   77  52  41 S15G21    30.24F
FAIRFIELD *    SUNNY     75  48  38 SE15      30.23F
FORT MADISON * SUNNY     75  48  38 S10       30.25S
KEOKUK *       SUNNY     75  50  41 S13G20    30.23F
OSKALOOSA *    CLOUDY    72  43  35 S15       30.23S
CENTERVILLE *  SUNNY     72  72 100 S12       30.22F
OTTUMWA        LGT RAIN  73  50  44 S15       30.22F
WASHINGTON *   MOSUNNY   77  48  36 S14G22    30.24F
$$

ABBREVIATIONS USED IN REMARKS
   TC - TEMPERATURES IN CELSIUS
  WCI - WIND CHILL INDEX
   HX - HEAT INDEX
  VSB - VISIBILITY
$$



USA.gov is the U.S. government's official web portal to all federal, state and local government web resources and services.